Location: Unspecified
(0.0000°N, 0.0000°E)
Time: 13:30:27
(UTC+00:00)

FORMOSAT 3E - Pass Details

Date: 24 May 2026
Orbit: 740 x 833 km, 72.0° (Epoch: 5 June)

Event Time Altitude Azimuth Distance (km) Brightness Sun altitude
Rises 19:07:19 0° 342° (NNW) 3,166 11.8 -16.4°
Reaches altitude 10° 19:09:39 10° 341° (NNW) 2,251 11.0 -17.0°
Maximum altitude 19:14:44 75° 256° (WSW) 784 8.1 -18.1°
Enters shadow 19:19:22 13° 171° (S) 2,077 9.9 -19.2°
